Time,TemperatureF,DewpointF,PressureIn,WindDirection,WindDirectionDegrees,WindSpeedMPH,WindSpeedGustMPH,Humidity,HourlyPrecipIn,Conditions,Clouds,dailyrainin,SoftwareType,DateUTC
2013-03-14 00:12:00,34.0,-99.9,-100.00,NNW,343,8.0,-999.0,-999,-99.99,,,0.00,,2013-03-14 04:12:00,
2013-03-14 00:22:00,34.0,-99.9,-100.00,NNW,345,8.0,-999.0,-999,-99.99,,,0.00,,2013-03-14 04:22:00,
2013-03-14 00:33:00,34.0,-99.9,-100.00,NNW,345,8.0,-999.0,-999,-99.99,,,0.00,,2013-03-14 04:33:00,
2013-03-14 00:42:00,34.0,-99.9,-100.00,NNW,342,8.0,-999.0,-999,-99.99,,,0.00,,2013-03-14 04:42:00,
2013-03-14 00:53:00,33.0,-99.9,-100.00,NNW,346,8.0,-999.0,-999,-99.99,,,0.00,,2013-03-14 04:53:00,
2013-03-14 01:02:00,33.0,-99.9,-100.00,NNW,346,8.0,-999.0,-999,-99.99,,,0.00,,2013-03-14 05:02:00,
2013-03-14 01:13:00,33.0,-99.9,-100.00,North,350,7.0,-999.0,-999,-99.99,,,0.00,,2013-03-14 05:13:00,
2013-03-14 01:22:00,33.0,-99.9,-100.00,NNW,347,8.0,-999.0,-999,-99.99,,,0.00,,2013-03-14 05:22:00,
2013-03-14 01:33:00,33.0,-99.9,-100.00,NNW,347,8.0,-999.0,-999,-99.99,,,0.00,,2013-03-14 05:33:00,
2013-03-14 01:43:00,33.0,-99.9,-100.00,NNW,347,8.0,-999.0,-999,-99.99,,,0.00,,2013-03-14 05:43:00,
2013-03-14 02:13:00,32.0,-99.9,-100.00,North,351,8.0,-999.0,-999,-99.99,,,0.00,,2013-03-14 06:13:00,
2013-03-14 02:22:00,32.0,-99.9,-100.00,NNW,348,8.0,-999.0,-999,-99.99,,,0.00,,2013-03-14 06:22:00,
2013-03-14 02:30:00,32.0,-99.9,-100.00,NNW,335,7.0,-999.0,-999,-99.99,,,0.00,,2013-03-14 06:30:00,
2013-03-14 02:33:00,32.0,-99.9,-100.00,NNW,348,8.0,-999.0,-999,-99.99,,,0.00,,2013-03-14 06:33:00,
2013-03-14 02:42:00,32.0,-99.9,-100.00,NNW,341,8.0,-999.0,-999,-99.99,,,0.00,,2013-03-14 06:42:00,
2013-03-14 02:52:00,32.0,-99.9,-100.00,NNW,342,6.0,-999.0,-999,-99.99,,,0.00,,2013-03-14 06:52:00,
2013-03-14 03:02:00,32.0,-99.9,-100.00,NNW,342,6.0,-999.0,-999,-99.99,,,0.00,,2013-03-14 07:02:00,
2013-03-14 03:12:00,32.0,-99.9,-100.00,NNW,335,7.0,-999.0,-999,-99.99,,,0.00,,2013-03-14 07:12:00,
2013-03-14 03:22:00,32.0,-99.9,-100.00,NNW,335,7.0,-999.0,-999,-99.99,,,0.00,,2013-03-14 07:22:00,
2013-03-14 03:43:00,31.0,-99.9,-100.00,NW,326,7.0,-999.0,-999,-99.99,,,0.00,,2013-03-14 07:43:00,
2013-03-14 03:52:00,31.0,-99.9,-100.00,NW,322,7.0,-999.0,-999,-99.99,,,0.00,,2013-03-14 07:52:00,
2013-03-14 04:02:00,31.0,-99.9,-100.00,NW,322,7.0,-999.0,-999,-99.99,,,0.00,,2013-03-14 08:02:00,
2013-03-14 04:12:00,31.0,-99.9,-100.00,NNW,328,6.0,-999.0,-999,-99.99,,,0.00,,2013-03-14 08:12:00,
2013-03-14 04:22:00,31.0,-99.9,-100.00,NW,326,6.0,-999.0,-999,-99.99,,,0.00,,2013-03-14 08:22:00,
2013-03-14 04:32:00,31.0,-99.9,-100.00,NW,326,6.0,-999.0,-999,-99.99,,,0.00,,2013-03-14 08:32:00,
2013-03-14 04:42:00,31.0,-99.9,-100.00,NW,324,5.0,-999.0,-999,-99.99,,,0.00,,2013-03-14 08:42:00,
2013-03-14 04:52:00,30.0,-99.9,-100.00,NW,311,7.0,-999.0,-999,-99.99,,,0.00,,2013-03-14 08:52:00,
2013-03-14 05:02:00,30.0,-99.9,-100.00,NW,311,7.0,-999.0,-999,-99.99,,,0.00,,2013-03-14 09:02:00,
2013-03-14 05:12:00,30.0,-99.9,-100.00,NNW,340,7.0,-999.0,-999,-99.99,,,0.00,,2013-03-14 09:12:00,
2013-03-14 05:22:00,31.0,-99.9,-100.00,North,350,6.0,-999.0,-999,-99.99,,,0.00,,2013-03-14 09:22:00,
2013-03-14 05:32:00,31.0,-99.9,-100.00,North,350,6.0,-999.0,-999,-99.99,,,0.00,,2013-03-14 09:32:00,
2013-03-14 05:42:00,30.0,-99.9,-100.00,NNW,348,6.0,-999.0,-999,-99.99,,,0.00,,2013-03-14 09:42:00,
2013-03-14 05:52:00,31.0,-99.9,-100.00,NNE,23,8.0,-999.0,-999,-99.99,,,0.00,,2013-03-14 09:52:00,
2013-03-14 06:02:00,31.0,-99.9,-100.00,NNE,23,8.0,-999.0,-999,-99.99,,,0.00,,2013-03-14 10:02:00,
2013-03-14 06:12:00,31.0,-99.9,-100.00,NNE,23,10.0,-999.0,-999,-99.99,,,0.00,,2013-03-14 10:12:00,
2013-03-14 06:22:00,30.0,-99.9,-100.00,North,350,7.0,-999.0,-999,-99.99,,,0.00,,2013-03-14 10:22:00,
2013-03-14 06:32:00,30.0,-99.9,-100.00,North,350,7.0,-999.0,-999,-99.99,,,0.00,,2013-03-14 10:32:00,
2013-03-14 06:42:00,30.0,-99.9,-100.00,NNW,348,6.0,-999.0,-999,-99.99,,,0.00,,2013-03-14 10:42:00,
2013-03-14 06:52:00,30.0,-99.9,-100.00,NNW,343,7.0,-999.0,-999,-99.99,,,0.00,,2013-03-14 10:52:00,
2013-03-14 07:02:00,30.0,-99.9,-100.00,NNW,343,7.0,-999.0,-999,-99.99,,,0.00,,2013-03-14 11:02:00,
2013-03-14 07:12:00,29.0,-99.9,-100.00,NNW,338,8.0,-999.0,-999,-99.99,,,0.00,,2013-03-14 11:12:00,
2013-03-14 07:22:00,29.0,-99.9,-100.00,NNW,335,7.0,-999.0,-999,-99.99,,,0.00,,2013-03-14 11:22:00,
2013-03-14 07:33:00,29.0,-99.9,-100.00,NNW,335,7.0,-999.0,-999,-99.99,,,0.00,,2013-03-14 11:33:00,
2013-03-14 07:42:00,29.0,-99.9,-100.00,NNW,335,7.0,-999.0,-999,-99.99,,,0.00,,2013-03-14 11:42:00,
2013-03-14 07:53:00,29.0,-99.9,-100.00,NNW,327,7.0,-999.0,-999,-99.99,,,0.00,,2013-03-14 11:53:00,
2013-03-14 08:02:00,29.0,-99.9,-100.00,NNW,327,7.0,-999.0,-999,-99.99,,,0.00,,2013-03-14 12:02:00,
2013-03-14 08:12:00,28.0,-99.9,-100.00,NNW,328,5.0,-999.0,-999,-99.99,,,0.00,,2013-03-14 12:12:00,
2013-03-14 08:22:00,28.0,-99.9,-100.00,NNW,336,6.0,-999.0,-999,-99.99,,,0.00,,2013-03-14 12:22:00,
2013-03-14 08:33:00,28.0,-99.9,-100.00,NNW,336,6.0,-999.0,-999,-99.99,,,0.00,,2013-03-14 12:33:00,
2013-03-14 08:43:00,28.0,-99.9,-100.00,NNW,336,7.0,-999.0,-999,-99.99,,,0.00,,2013-03-14 12:43:00,
2013-03-14 08:52:00,28.0,-99.9,-100.00,NNW,336,7.0,-999.0,-999,-99.99,,,0.00,,2013-03-14 12:52:00,
2013-03-14 09:03:00,28.0,-99.9,-100.00,NNW,336,7.0,-999.0,-999,-99.99,,,0.00,,2013-03-14 13:03:00,
2013-03-14 09:13:00,28.0,-99.9,-100.00,NNW,341,7.0,-999.0,-999,-99.99,,,0.00,,2013-03-14 13:13:00,
2013-03-14 09:22:00,29.0,-99.9,-100.00,NNW,345,6.0,-999.0,-999,-99.99,,,0.00,,2013-03-14 13:22:00,
2013-03-14 09:33:00,29.0,-99.9,-100.00,NNW,345,6.0,-999.0,-999,-99.99,,,0.00,,2013-03-14 13:33:00,
2013-03-14 09:43:00,29.0,-99.9,-100.00,North,352,8.0,-999.0,-999,-99.99,,,0.00,,2013-03-14 13:43:00,
2013-03-14 09:53:00,30.0,-99.9,-100.00,North,351,6.0,-999.0,-999,-99.99,,,0.00,,2013-03-14 13:53:00,
2013-03-14 10:02:00,30.0,-99.9,-100.00,North,351,6.0,-999.0,-999,-99.99,,,0.00,,2013-03-14 14:02:00,
2013-03-14 10:12:00,30.0,-99.9,-100.00,North,7,8.0,-999.0,-999,-99.99,,,0.00,,2013-03-14 14:12:00,
2013-03-14 10:22:00,31.0,-99.9,-100.00,North,0,7.0,-999.0,-999,-99.99,,,0.00,,2013-03-14 14:22:00,
2013-03-14 10:32:00,31.0,-99.9,-100.00,North,0,7.0,-999.0,-999,-99.99,,,0.00,,2013-03-14 14:32:00,
2013-03-14 10:43:00,31.0,-99.9,-100.00,NNW,343,7.0,-999.0,-999,-99.99,,,0.00,,2013-03-14 14:43:00,
2013-03-14 10:53:00,32.0,-99.9,-100.00,NNE,14,7.0,-999.0,-999,-99.99,,,0.00,,2013-03-14 14:53:00,
2013-03-14 11:02:00,32.0,-99.9,-100.00,NNE,14,7.0,-999.0,-999,-99.99,,,0.00,,2013-03-14 15:02:00,
2013-03-14 11:12:00,32.0,-99.9,-100.00,NNE,20,6.0,-999.0,-999,-99.99,,,0.00,,2013-03-14 15:12:00,
2013-03-14 11:22:00,33.0,-99.9,-100.00,North,1,6.0,-999.0,-999,-99.99,,,0.00,,2013-03-14 15:22:00,
2013-03-14 11:33:00,33.0,-99.9,-100.00,NNE,21,6.0,-999.0,-999,-99.99,,,0.00,,2013-03-14 15:33:00,
2013-03-14 11:43:00,33.0,-99.9,-100.00,NNE,21,6.0,-999.0,-999,-99.99,,,0.00,,2013-03-14 15:43:00,
2013-03-14 11:52:00,34.0,-99.9,-100.00,North,9,4.0,-999.0,-999,-99.99,,,0.00,,2013-03-14 15:52:00,
2013-03-14 12:03:00,35.0,-99.9,-100.00,North,4,6.0,-999.0,-999,-99.99,,,0.00,,2013-03-14 16:03:00,
2013-03-14 12:13:00,35.0,-99.9,-100.00,North,4,6.0,-999.0,-999,-99.99,,,0.00,,2013-03-14 16:13:00,
2013-03-14 12:23:00,35.0,-99.9,-100.00,NNW,345,6.0,-999.0,-999,-99.99,,,0.00,,2013-03-14 16:23:00,
2013-03-14 12:33:00,36.0,-99.9,-100.00,North,8,4.0,-999.0,-999,-99.99,,,0.00,,2013-03-14 16:33:00,
2013-03-14 12:42:00,36.0,-99.9,-100.00,North,8,4.0,-999.0,-999,-99.99,,,0.00,,2013-03-14 16:42:00,
2013-03-14 12:52:00,36.0,-99.9,-100.00,NE,38,4.0,-999.0,-999,-99.99,,,0.00,,2013-03-14 16:52:00,
2013-03-14 13:03:00,36.0,-99.9,-100.00,NE,38,4.0,-999.0,-999,-99.99,,,0.00,,2013-03-14 17:03:00,
2013-03-14 13:13:00,37.0,-99.9,-100.00,NE,39,4.0,-999.0,-999,-99.99,,,0.00,,2013-03-14 17:13:00,
2013-03-14 13:24:00,38.0,-99.9,-100.00,ESE,122,5.0,-999.0,-999,-99.99,,,0.00,,2013-03-14 17:24:00,
2013-03-14 13:33:00,38.0,-99.9,-100.00,ESE,122,5.0,-999.0,-999,-99.99,,,0.00,,2013-03-14 17:33:00,
2013-03-14 13:42:00,38.0,-99.9,-100.00,SE,131,4.0,-999.0,-999,-99.99,,,0.00,,2013-03-14 17:42:00,
2013-03-14 13:53:00,39.0,-99.9,-100.00,ESE,110,4.0,-999.0,-999,-99.99,,,0.00,,2013-03-14 17:53:00,
2013-03-14 14:03:00,39.0,-99.9,-100.00,ESE,110,4.0,-999.0,-999,-99.99,,,0.00,,2013-03-14 18:03:00,
2013-03-14 14:13:00,40.0,-99.9,-100.00,NNE,30,4.0,-999.0,-999,-99.99,,,-99.99,,2013-03-14 18:13:00,
2013-03-14 14:23:00,41.0,-99.9,-100.00,NW,314,4.0,-999.0,-999,-99.99,,,0.00,,2013-03-14 18:23:00,
2013-03-14 14:33:00,41.0,-99.9,-100.00,NW,314,4.0,-999.0,-999,-99.99,,,0.00,,2013-03-14 18:33:00,
2013-03-14 14:43:00,41.0,-99.9,-100.00,SE,141,5.0,-999.0,-999,-99.99,,,0.00,,2013-03-14 18:43:00,
2013-03-14 14:53:00,42.0,-99.9,-100.00,South,177,4.0,-999.0,-999,-99.99,,,0.00,,2013-03-14 18:53:00,
2013-03-14 15:03:00,42.0,-99.9,-100.00,South,177,4.0,-999.0,-999,-99.99,,,0.00,,2013-03-14 19:03:00,
2013-03-14 15:12:00,43.0,-99.9,-100.00,South,191,2.0,-999.0,-999,-99.99,,,0.00,,2013-03-14 19:12:00,
2013-03-14 15:23:00,44.0,-99.9,-100.00,WSW,246,4.0,-999.0,-999,-99.99,,,0.00,,2013-03-14 19:23:00,
2013-03-14 15:32:00,44.0,-99.9,-100.00,WSW,246,4.0,-999.0,-999,-99.99,,,0.00,,2013-03-14 19:32:00,
2013-03-14 15:43:00,44.0,-99.9,-100.00,WSW,246,4.0,-999.0,-999,-99.99,,,0.00,,2013-03-14 19:43:00,
2013-03-14 16:43:00,47.0,-99.9,-100.00,South,181,4.0,-999.0,-999,-99.99,,,0.00,,2013-03-14 20:43:00,
2013-03-14 16:53:00,47.0,-99.9,-100.00,SSE,162,4.0,-999.0,-999,-99.99,,,0.00,,2013-03-14 20:53:00,
2013-03-14 17:03:00,47.0,-99.9,-100.00,SSE,162,4.0,-999.0,-999,-99.99,,,0.00,,2013-03-14 21:03:00,
2013-03-14 17:13:00,47.0,-99.9,-100.00,SSE,163,4.0,-999.0,-999,-99.99,,,-99.99,,2013-03-14 21:13:00,
2013-03-14 17:23:00,48.0,-99.9,-100.00,SSE,154,4.0,-999.0,-999,-99.99,,,0.00,,2013-03-14 21:23:00,
2013-03-14 17:33:00,48.0,-99.9,-100.00,SSE,154,4.0,-999.0,-999,-99.99,,,0.00,,2013-03-14 21:33:00,
2013-03-14 17:44:00,48.0,-99.9,-100.00,South,173,5.0,-999.0,-999,-99.99,,,0.00,,2013-03-14 21:44:00,
2013-03-14 17:53:00,49.0,-99.9,-100.00,SSW,196,4.0,-999.0,-999,-99.99,,,0.00,,2013-03-14 21:53:00,
2013-03-14 18:04:00,49.0,-99.9,-100.00,SSW,196,4.0,-999.0,-999,-99.99,,,0.00,,2013-03-14 22:04:00,
2013-03-14 18:13:00,49.0,-99.9,-100.00,South,186,4.0,-999.0,-999,-99.99,,,-99.99,,2013-03-14 22:13:00,
2013-03-14 18:23:00,49.0,-99.9,-100.00,South,190,4.0,-999.0,-999,-99.99,,,0.00,,2013-03-14 22:23:00,
2013-03-14 18:33:00,49.0,-99.9,-100.00,South,190,4.0,-999.0,-999,-99.99,,,0.00,,2013-03-14 22:33:00,
2013-03-14 18:42:00,49.0,-99.9,-100.00,SW,225,3.0,-999.0,-999,-99.99,,,0.00,,2013-03-14 22:42:00,
2013-03-14 18:53:00,49.0,-99.9,-100.00,SW,216,3.0,-999.0,-999,-99.99,,,0.00,,2013-03-14 22:53:00,
2013-03-14 19:03:00,49.0,-99.9,-100.00,SW,216,3.0,-999.0,-999,-99.99,,,0.00,,2013-03-14 23:03:00,
2013-03-14 19:12:00,49.0,-99.9,-100.00,South,188,3.0,-999.0,-999,-99.99,,,-99.99,,2013-03-14 23:12:00,
2013-03-14 19:23:00,49.0,-99.9,-100.00,SW,232,3.0,-999.0,-999,-99.99,,,0.00,,2013-03-14 23:23:00,
2013-03-14 19:33:00,49.0,-99.9,-100.00,SW,232,3.0,-999.0,-999,-99.99,,,0.00,,2013-03-14 23:33:00,
2013-03-14 19:43:00,48.0,-99.9,-100.00,West,278,6.0,-999.0,-999,-99.99,,,0.00,,2013-03-14 23:43:00,
2013-03-14 19:54:00,48.0,-99.9,-100.00,WNW,297,7.0,-999.0,-999,-99.99,,,0.00,,2013-03-14 23:54:00,
2013-03-14 20:02:00,48.0,-99.9,-100.00,WNW,297,7.0,-999.0,-999,-99.99,,,0.00,,2013-03-15 00:02:00,
2013-03-14 20:12:00,47.0,-99.9,-100.00,WNW,291,7.0,-999.0,-999,-99.99,,,-99.99,,2013-03-15 00:12:00,
2013-03-14 20:23:00,47.0,-99.9,-100.00,WNW,295,6.0,-999.0,-999,-99.99,,,0.00,,2013-03-15 00:23:00,
2013-03-14 20:33:00,47.0,-99.9,-100.00,WNW,295,6.0,-999.0,-999,-99.99,,,0.00,,2013-03-15 00:33:00,
2013-03-14 20:43:00,47.0,-99.9,-100.00,WNW,294,6.0,-999.0,-999,-99.99,,,0.00,,2013-03-15 00:43:00,
2013-03-14 20:53:00,46.0,-99.9,-100.00,WNW,286,4.0,-999.0,-999,-99.99,,,0.00,,2013-03-15 00:53:00,
2013-03-14 21:03:00,46.0,-99.9,-100.00,WNW,286,4.0,-999.0,-999,-99.99,,,0.00,,2013-03-15 01:03:00,
2013-03-14 21:12:00,46.0,-99.9,-100.00,WNW,283,6.0,-999.0,-999,-99.99,,,-99.99,,2013-03-15 01:12:00,
2013-03-14 21:23:00,46.0,-99.9,-100.00,West,277,8.0,-999.0,-999,-99.99,,,0.00,,2013-03-15 01:23:00,
2013-03-14 21:33:00,46.0,-99.9,-100.00,West,277,8.0,-999.0,-999,-99.99,,,0.00,,2013-03-15 01:33:00,
2013-03-14 21:43:00,44.0,-99.9,-100.00,West,264,9.0,-999.0,-999,-99.99,,,0.00,,2013-03-15 01:43:00,
2013-03-14 21:52:00,41.0,-99.9,-100.00,West,276,8.0,-999.0,-999,-99.99,,,0.00,,2013-03-15 01:52:00,
2013-03-14 22:03:00,41.0,-99.9,-100.00,West,276,8.0,-999.0,-999,-99.99,,,0.00,,2013-03-15 02:03:00,
2013-03-14 22:12:00,41.0,-99.9,-100.00,West,278,4.0,-999.0,-999,-99.99,,,0.00,,2013-03-15 02:12:00,
2013-03-14 22:22:00,41.0,-99.9,-100.00,WSW,239,3.0,-999.0,-999,-99.99,,,0.00,,2013-03-15 02:22:00,
2013-03-14 22:33:00,41.0,-99.9,-100.00,WSW,239,3.0,-999.0,-999,-99.99,,,0.00,,2013-03-15 02:33:00,
2013-03-14 22:42:00,41.0,-99.9,-100.00,SW,230,3.0,-999.0,-999,-99.99,,,0.00,,2013-03-15 02:42:00,
2013-03-14 22:52:00,40.0,-99.9,-100.00,SW,234,4.0,-999.0,-999,-99.99,,,0.00,,2013-03-15 02:52:00,
2013-03-14 23:02:00,40.0,-99.9,-100.00,SW,234,4.0,-999.0,-999,-99.99,,,0.00,,2013-03-15 03:02:00,
2013-03-14 23:13:00,40.0,-99.9,-100.00,WSW,245,3.0,-999.0,-999,-99.99,,,0.00,,2013-03-15 03:13:00,
2013-03-14 23:22:00,40.0,-99.9,-100.00,West,268,4.0,-999.0,-999,-99.99,,,0.00,,2013-03-15 03:22:00,
2013-03-14 23:33:00,40.0,-99.9,-100.00,West,268,4.0,-999.0,-999,-99.99,,,0.00,,2013-03-15 03:33:00,
2013-03-14 23:43:00,40.0,-99.9,-100.00,West,276,4.0,-999.0,-999,-99.99,,,0.00,,2013-03-15 03:43:00,
2013-03-14 23:53:00,40.0,-99.9,-100.00,West,262,4.0,-999.0,-999,-99.99,,,0.00,,2013-03-15 03:53:00,